Flag for Switzerland Weather past 2 weeks in Yverdon-les-Bains, Vaud, Switzerland

Now
72 °F

Mild.


Feels Like: 76 °F
Forecast: 50 / 78 °F
Wind: 5 mph from Northeast

Location: Payerne

Current Time: Jul 24, 2014 at 1:04:20 PM

Latest Report: Jul 24, 2014 at 12:00 PM


Visibility: N/A

Pressure: 29.85 "Hg

Humidity: 64%

Dew point: 59 °F

Location of Yverdon-les-BainsLocation

Historic Weather in Yverdon-les-Bains — Graph

°F

Yverdon-les-Bains temperature yesterday

Maximum temperature yesterday: 76 °F (at 4:00 PM)
Minimum temperature yesterday: 62 °F (at 5:00 AM)
Average temperature yesterday: 69 °F

Past Weeks' High & Low Weather Summary

 TemperatureHumidityPressure
High86 °F (Jul 18, 5:00 PM)99% (Jul 23, 2:00 AM)30.20 "Hg (Jul 23, 2:00 AM)
Low50 °F (Jul 10, 5:00 AM)32% (Jul 18, 4:00 PM)29.80 "Hg (Jul 19, 7:00 PM)
Average65 °F79%29.97 "Hg
* Reported Jul 9 3:00 PM — Jul 24 11:00 AM, Yverdon-les-Bains, Weather by CustomWeather, © 2014

Note: Actual official high and low records may vary slightly from our data, if they occured in-between our weather recording intervals... More about our weather records

Advertising

Yverdon-les-Bains weather history for previous 24 hours

 ConditionsComfort  
Time TempWeatherWind HumidityBarometerVisibility
11:00 AM
Jul 24
69 °FScattered clouds.7 mph63%29.86 "Hg14 mi
10:00 AM69 °FMild.6 mph67%29.86 "HgN/A
9:00 AM66 °FMild.1 mph82%29.86 "HgN/A
8:00 AM64 °FOvercast.No wind95%29.86 "Hg11 mi
7:00 AM62 °FCool.1 mph97%29.86 "HgN/A
6:00 AM61 °FCool.1 mph97%29.85 "HgN/A
5:00 AM62 °FCool.5 mph94%29.85 "HgN/A
4:00 AM60 °FCool.1 mph95%29.85 "HgN/A
3:00 AM62 °FCool.1 mph92%29.85 "HgN/A
2:00 AM63 °FOvercast.2 mph92%29.85 "Hg14 mi
1:00 AM63 °FMild.1 mph93%29.86 "HgN/A
12:00 AM65 °FMild.1 mph86%29.85 "HgN/A
11:00 PM
Jul 23
67 °FOvercast.1 mph84%29.85 "Hg12 mi
10:00 PM70 °FMild.2 mph75%29.85 "HgN/A
9:00 PM72 °FMild.3 mph68%29.83 "HgN/A
8:00 PM73 °FPartly sunny.6 mph64%29.82 "Hg12 mi
7:00 PM75 °FMild.9 mph59%29.81 "HgN/A
6:00 PM76 °FMild.8 mph56%29.81 "HgN/A
5:00 PM76 °FMild.7 mph58%29.82 "HgN/A
4:00 PM76 °FMild.10 mph56%29.82 "HgN/A
3:00 PM76 °FMild.12 mph62%29.83 "HgN/A
Weather by CustomWeather, © 2014

See weather overviewHow to use our weather pages